STARLINK-2144, 47734

Orbit data source: Space-Track

STARLINK-2144, 47734 is a payload satellite owned by SpaceX/Seattle (US) in LEO that was launched on Thu, 04 Mar 2021 UTC via an FALCON 9 launch vehicle from the Air Force Eastern Test Range (AFETR). Payload-class satellites include a variety of spacecraft equipped with specific instruments for various scientific and technological missions. These include communications satellites like Starlink; space stations such as the ISS; scientific satellites like the Hubble; Earth observation satellites from companies like Planet Labs, Umbra, and HawkEye 360; GPS; miniature CubeSats for education and research; and military/defense satellites.

Loading next visibility...
Identifier
47734, 2021-017N
Orbit
LEO
Country
Flag of USUS
Related business
Manufacturer
SpaceX/Seattle
Mission
Operational Commercial Communications
Bus & Motor
STARLINK, Unknown motor
Mass
260 kg wet, ~248 kg dry
Launch date (UTC)
2021-03-04 (5 years ago)
Launch vehicle
FALCON 9
Launch site
Air Force Eastern Test Range (AFETR)
Object type
Payload
Rocket body
Debris
Shape & HBR
Box + 1 Pan, 10.1 m
Radar Cross Section
13.562 m², Large (>1 m²)

Expand to show TLE details & history
Last TLE update: 14 hours ago

TLE from 14 hours ago
0 STARLINK-2144
1 47734U 21017N   26236.15274557  .00001009  00000-0  44280-4 0  9993
2 47734  53.1603 144.6072 0001243  84.0729 276.0414 15.31699973303529
Epoch: 2026-08-24T03:39Z
TLE epoch observation values (Epoch: 2026-08-24T03:39:57.217Z)
Latitude
-0.00001°
Longitude
117.18024°
Altitude
471.551 km
Speed
7.632 km/s
True Right ascension
09h 38m 25s
True Declination
0° 00' 00"
Sunlit
Object was in daylight at epoch
Visualization orbit readout
Latitude
Unknown
Longitude
Unknown
Altitude
Unknown
Speed
Unknown
Apparent Right ascension
Unknown
Apparent Declination
Unknown
Sunlit
N/A
Visualization observer readout
Local Sidereal Time
08:57:56
Azimuth
Unknown
Elevation
Unknown
Doppler factor
Unknown
Orbital elements
Apogee altitude
471.848 km
Perigee altitude
470.145 km
Semi-major axis
6,849.134 km
Eccentricity
0.00012
Inclination
53.1603°
RAAN
144.6072°
Arg. of periapsis
84.0729°
True anomaly
276.02724°
Mean anomaly
276.0414°
Eccentric anomaly
276.03432°
Mean motion
3.82904 °/min
Orbital period
94.02 mins
BSTAR
0.00004428
Loading maneuver chart data...
Computing Atmospheric mass density...

Documentation

Showing up to 5 results
|